STARLINK-1010 (44716 NORAD) Tracking and Keplerian Element Data

This shows tracking and keplerian element data for the satellite.

Feedback or suggestion? Click here.




ElementValue
Catalog44716
NameSTARLINK-1010
Epoch Orbit1134
Epoch Day22.58334491
Epoch Year2020
RAAN172.645
Inclination53.0056
Eccentricity0.0002992
Argument of Perigee21.8465
Mean Anonmoly89.1272
Mean Motion15.73228036
Decay Rate-3.951E-05
L11 44716U 19074D 20022.58334491 -.00003951 00000-0 -23678-4 0 9996
L22 44716 53.0056 172.6450 0002992 21.8465 89.1272 15.73228036 11341

Live tracking and technical data element details for STARLINK-1010 (NORAD 44716). STARLINK-1010 can be tracked NOW for your location showing map with azimuth and elevation plus other details from your city location.

Track the satellite on the map from your city or location and see movement details for azimuth, elevation, latitude, longitude, range, height, and movement on the map or in text.







IsCatalogInMostPopularTable: catalog: 44716, numindb: 8
Update: records affected: 1



GetName: 44716 STARLINK-1010

Hit Count: updated at: Fri, 24 Jan 2020 13:26:54 GMT